Simultaneous Nadir Overpasses (SNOs) Predictions

Prediction of SNOs between METOP-A and TERRA Satellite Orbit:

Table of predicted SNOs for the next 14.0 days since TLE Epoch: 4/26/2014
Index Date (METOP-A) Time (METOP-A) Lat,Lon (METOP-A) SZA (METOP-A ) Date (TERRA) Time (TERRA) Lat,Lon (TERRA) SZA (TERRA ) Distance(km) Time Diff (sec)
1 04/26/2014 14:48:26 81.28, 4.88 70.57 04/26/2014 14:49:02 81.28, 4.74 70.57 2.48 36
2 04/26/2014 15:39:06 -81.28, 172.58 109.40 04/26/2014 15:38:28 -81.29, 172.53 109.42 1.10 38
3 04/29/2014 10:22:51 81.28, 70.97 69.66 04/29/2014 10:23:16 81.27, 70.96 69.67 0.56 25
4 04/29/2014 11:13:31 -81.28,-121.34 110.31 04/29/2014 11:12:42 -81.28,-121.21 110.32 2.26 49
5 05/02/2014 05:57:13 81.28, 137.76 68.87 05/02/2014 05:57:29 81.29, 137.70 68.87 1.27 16
6 05/
